Home > Weather > Germering > Past weeks

Flag for Germany Past Weather in Germering, Bavaria, Germany — Yesterday and Last 2 Weeks

Now
70 °F

Sunny.


Feels Like: 70 °F
Forecast: 61 / 77 °F
Wind: No wind

Location: Oberpfaffenhofen

Current Time: Jul 28, 2016 at 10:45:46 AM

Latest Report: Jul 28, 2016 at 9:50 AM


Visibility: 10 mi

Pressure: 30.09 "Hg (28.27 "Hg at 538m altitude)

Humidity: 73%

Dew Point: 61 °F

Location of GermeringLocation

Past Weather in Germering — Graph

°F

Germering Temperature Yesterday

Maximum temperature yesterday: 77 °F (at 3:50 PM)
Minimum temperature yesterday: 59 °F (at 6:50 AM)
Average temperature yesterday: 70 °F

High & Low Weather Summary for the Past Weeks

 TemperatureHumidityPressure
High86 °F (Jul 20, 5:20 PM)100% (Jul 14, 8:20 AM)30.33 "Hg (Jul 14, 8:20 AM)
Low50 °F (Jul 14, 6:50 AM)31% (Jul 20, 2:20 PM)29.95 "Hg (Jul 13, 11:20 AM)
Average69 °F72%30.11 "Hg
* Reported Jul 13 9:20 AM — Jul 28 9:20 AM, Germering, Weather by CustomWeather, © 2016

Note: Actual official high and low records may vary slightly from our data, if they occured in-between our weather recording intervals... More about our weather records

Advertising

Germering Weather History for the Previous 24 Hours

Scroll right to see more
 ConditionsComfort  
Time TempWeatherWind HumidityBarometerVisibility
9:20 AM
Thu, Jul 28
66 °FSunny.2 mph83%30.09 "Hg10 mi
8:50 AM64 °FSunny.3 mph83%30.09 "Hg10 mi
8:20 AM63 °FSunny.5 mph88%30.09 "Hg10 mi
7:50 AM61 °FSunny.3 mph94%30.09 "Hg10 mi
7:20 AM61 °FSunny.1 mph94%30.09 "Hg10 mi
6:50 AM59 °FSunny.3 mph94%30.09 "Hg10 mi
8:50 PM
Wed, Jul 27
70 °FPassing clouds.7 mph73%30.07 "HgN/A
8:20 PM72 °FPassing clouds.9 mph65%30.07 "HgN/A
7:50 PM73 °FScattered clouds.6 mph69%30.04 "HgN/A
6:50 PM73 °FPassing clouds.7 mph69%30.04 "HgN/A
6:20 PM73 °FPassing clouds.9 mph69%30.04 "HgN/A
5:50 PM73 °FScattered clouds.8 mph69%30.04 "HgN/A
5:20 PM75 °FScattered clouds.8 mph65%30.04 "HgN/A
4:50 PM75 °FScattered clouds.9 mph65%30.04 "HgN/A
4:20 PM77 °FScattered clouds.6 mph61%30.04 "HgN/A
3:50 PM77 °FScattered clouds.8 mph65%30.04 "HgN/A
3:20 PM75 °FScattered clouds.8 mph65%30.04 "HgN/A
2:50 PM75 °FScattered clouds.6 mph65%30.04 "HgN/A
2:20 PM75 °FScattered clouds.8 mph65%30.04 "HgN/A
1:50 PM75 °FScattered clouds.5 mph69%30.07 "HgN/A
1:20 PM73 °FScattered clouds.5 mph69%30.07 "HgN/A
12:50 PM70 °FScattered clouds.7 mph78%30.09 "HgN/A
12:20 PM72 °FPartly sunny.7 mph78%30.09 "HgN/A
11:50 AM70 °FPartly sunny.6 mph83%30.09 "HgN/A
11:20 AM70 °FPartly sunny.5 mph83%30.09 "HgN/A
10:50 AM66 °FSunny.5 mph88%30.09 "Hg10 mi
10:20 AM64 °FSunny.7 mph94%30.09 "Hg10 mi
Weather by CustomWeather, © 2016

See weather overviewHow to use our weather pages